Home   Weather   Stuttgart   Past weeks

Flag for Germany Past Weather in Stuttgart, Baden-Württemberg, Germany — Yesterday and Last 2 Weeks

Now
64 °F

Clear.


Feels Like: 64 °F
Forecast: 59 / 74 °F
Wind: 2 mph from North

Location: Stuttgart-Echterdingen

Current Time: May 30, 2017 at 5:40:04 am

Latest Report: May 30, 2017 at 5:20 am


Visibility: 10 mi

Pressure: 29.98 "Hg

Humidity: 78%

Dew Point: 57 °F

Location of StuttgartLocation

Past Weather in Stuttgart — Graph

°F

Stuttgart Temperature Yesterday

Maximum temperature yesterday: 88 °F (at 2:20 pm)
Minimum temperature yesterday: 61 °F (at 4:20 am)
Average temperature yesterday: 75 °F

High & Low Weather Summary for the Past Weeks

 TemperatureHumidityPressure
High88 °F (May 29, 2:20 pm)100% (May 15, 6:20 am)30.42 "Hg (May 15, 6:20 am)
Low39 °F (May 21, 5:20 am)29% (May 16, 2:50 pm)29.80 "Hg (May 19, 1:20 am)
Average63 °F66%30.13 "Hg
* Reported May 15 4:20 am — May 30 4:20 am, Stuttgart. Weather by CustomWeather, © 2017

Note: Actual official high and low records may vary slightly from our data, if they occured in-between our weather recording intervals... More about our weather records

Advertising

Stuttgart Weather History for the Previous 24 Hours

Scroll right to see more
 ConditionsComfort  
Time TempWeatherWind HumidityBarometerVisibility
4:20 am
Tue, May 30
66 °FPassing clouds.3 mph78%29.98 "HgN/A
3:50 am66 °FPartly cloudy.3 mph78%29.98 "HgN/A
2:50 am66 °FPartly cloudy.8 mph78%29.98 "HgN/A
2:20 am68 °FThundershowers. Partly cloudy.18 mph69%29.98 "HgN/A
1:50 am68 °FThunderstorms. Partly cloudy.12 mph73%29.98 "Hg5 mi
1:20 am70 °FThundershowers. Partly cloudy.2 mph78%29.98 "HgN/A
12:50 am70 °FThundershowers. Partly cloudy.1 mph73%29.95 "HgN/A
12:20 am70 °FPassing clouds.2 mph78%29.95 "HgN/A
11:50 pm
Mon, May 29
72 °FPassing clouds.3 mph73%29.95 "HgN/A
11:20 pm72 °FClear.3 mph73%29.95 "Hg10 mi
10:50 pm73 °FClear.2 mph65%29.95 "Hg10 mi
10:20 pm73 °FClear.1 mph61%29.95 "Hg10 mi
9:50 pm75 °FPassing clouds.5 mph61%29.95 "HgN/A
9:20 pm77 °FClear.1 mph54%29.92 "Hg10 mi
8:50 pm79 °FSunny.1 mph54%29.92 "Hg10 mi
8:20 pm81 °FSunny.5 mph48%29.92 "Hg10 mi
7:50 pm82 °FPassing clouds.6 mph45%29.92 "HgN/A
7:20 pm82 °FPassing clouds.5 mph48%29.92 "HgN/A
6:50 pm82 °FPartly sunny.6 mph48%29.92 "HgN/A
6:20 pm84 °FScattered clouds.5 mph43%29.92 "HgN/A
5:50 pm86 °FScattered clouds.5 mph33%29.92 "HgN/A
5:20 pm86 °FScattered clouds.3 mph40%29.92 "HgN/A
4:50 pm86 °FThundershowers. Scattered clouds.6 mph33%29.92 "HgN/A
4:20 pm86 °FScattered clouds.6 mph35%29.95 "HgN/A
3:50 pm84 °FThundershowers. Scattered clouds.5 mph43%29.95 "HgN/A
3:20 pm84 °FPassing clouds.7 mph43%29.95 "HgN/A
2:50 pm88 °FPassing clouds.7 mph35%29.95 "HgN/A
2:20 pm88 °FPassing clouds.5 mph33%29.95 "HgN/A
1:50 pm86 °FPassing clouds.2 mph38%29.95 "HgN/A
1:20 pm86 °FPassing clouds.3 mph40%29.98 "HgN/A
12:50 pm84 °FPassing clouds.3 mph37%29.98 "HgN/A
12:20 pm82 °FPassing clouds.2 mph51%29.98 "HgN/A
11:50 am82 °FPassing clouds.5 mph51%30.01 "HgN/A
10:50 am81 °FPassing clouds.3 mph54%30.01 "HgN/A
10:20 am79 °FPassing clouds.3 mph54%30.01 "HgN/A
9:50 am79 °FPassing clouds.3 mph58%30.01 "HgN/A
9:20 am75 °FSunny.2 mph65%30.01 "Hg10 mi
8:50 am72 °FSunny.2 mph73%30.01 "Hg10 mi
8:20 am70 °FPassing clouds.3 mph73%30.01 "HgN/A
7:50 am66 °FSunny.3 mph83%30.01 "Hg10 mi
7:20 am64 °FSunny.1 mph88%30.01 "Hg10 mi
6:50 am63 °FSunny.1 mph88%30.01 "Hg10 mi
6:20 am61 °FSunny.2 mph88%30.01 "Hg10 mi
5:50 am61 °FSunny.2 mph88%30.01 "Hg10 mi
Weather by CustomWeather, © 2017

See weather overviewHow to use our weather pages